Newark, NJ

6:12 PM EST on January 22, 2018 (GMT -0500)
Newark International

Weather History for KEWR - March, 2013

Change the Weather History Date:

Monday, March 25, 2013

  Actual Average Record
Temperature  
Mean Temperature 38 °F 45 °F  
Max Temperature 40 °F 54 °F 79 °F (1963)
Min Temperature 35 °F 36 °F 18 °F (1956)
Degree Days  
Heating Degree Days 27 20  
Month to date heating degree days 648 596  
Since 1 July heating degree days 4028 4231  
Cooling Degree Days 0 0  
Month to date cooling degree days 0 0  
Year to date cooling degree days 0 0  
Moisture  
Dew Point 31 °F    
Average Humidity 73    
Maximum Humidity 92    
Minimum Humidity 54    
Precipitation  
Precipitation 0.12 in 0.15 in 1.21 in (1969)
Month to date precipitation 2.91 3.32  
Year to date precipitation 9.25 9.74  
Snow  
Snow T in 0.10 in 3.00 in (1933)
Month to date snowfall 8.8 4.1  
Since 1 July snowfall 29.5 27.1  
Snow Depth 0.00 in    
Sea Level Pressure  
Sea Level Pressure 29.57 in    
Wind  
Wind Speed 11 mph (NE)    
Max Wind Speed 25 mph    
Max Gust Speed 35 mph    
Visibility 7 miles    
Events Rain , Snow    
T = Trace of Precipitation, MM = Missing Value Source: NWS Daily Summary

Daily Weather History Graph

Daily Weather History Graph

Search for Another Location

Airport or City:

Trip Planner

Search our weather history database for the weather conditions in past years. The results will help you decide how hot, cold, wet, or windy it might be!

Date:

Astronomy

Mar. 25, 2013 Rise Set
Actual Time 6:51 AM EDT 7:14 PM EDT
Civil Twilight 6:24 AM EDT 7:41 PM EDT
Nautical Twilight 5:51 AM EDT 8:13 PM EDT
Astronomical Twilight 5:18 AM EDT 8:47 PM EDT
Moon 5:42 PM EDT (3/25) 5:33 AM EDT (3/25)
Length of Visible Light 13h 17m
Length of Day
12h 22m
Waxing Gibbous, 96% of the Moon is Illuminated
Mar 25
Waxing Gibbous
Mar 27
Full
Apr 3
Last Quarter
Apr 10
New
Apr 18
First Quarter

Hourly Weather History & Observations

Time (EDT) Temp. Windchill Dew Point Humidity Pressure Visibility Wind Dir Wind Speed Gust Speed Precip Events Conditions
12:51 AM 39.9 °F 37.8 °F 26.1 °F 58% 29.70 in 10.0 mi SE 3.5 mph - N/A   Overcast
1:51 AM 39.0 °F 36.8 °F 27.0 °F 62% 29.70 in 10.0 mi ESE 3.5 mph - N/A   Overcast
2:51 AM 39.9 °F 36.7 °F 26.1 °F 58% 29.67 in 10.0 mi ENE 4.6 mph - N/A   Overcast
3:51 AM 39.9 °F 35.1 °F 27.0 °F 60% 29.64 in 10.0 mi ENE 6.9 mph - N/A   Overcast
4:51 AM 39.2 °F 35.0 °F 24.8 °F 56% 29.62 in 10.0 mi ENE 5.8 mph - N/A   Overcast
5:51 AM 39.9 °F 33.4 °F 26.1 °F 58% 29.62 in 10.0 mi ENE 10.4 mph - N/A   Overcast
6:51 AM 39.0 °F 31.4 °F 28.0 °F 65% 29.60 in 10.0 mi NE 12.7 mph - N/A   Overcast
7:51 AM 39.2 °F 31.6 °F 28.4 °F 65% 29.60 in 10.0 mi NE 12.7 mph - N/A   Overcast
9:51 AM 39.0 °F 29.6 °F 25.0 °F 57% 29.60 in 10.0 mi ENE 18.4 mph 26.5 mph N/A   Overcast
10:44 AM 37.4 °F 27.5 °F 26.6 °F 65% 29.59 in 3.0 mi NE 18.4 mph 34.5 mph 0.00 in Snow Light Snow
10:51 AM 37.9 °F 27.9 °F 28.0 °F 68% 29.59 in 3.0 mi NE 19.6 mph 28.8 mph 0.00 in Snow Light Snow
11:12 AM 35.6 °F 27.5 °F 30.2 °F 81% 29.59 in 1.5 mi ENE 11.5 mph 28.8 mph 0.00 in Snow Light Snow
11:51 AM 35.1 °F 27.9 °F 32.0 °F 89% 29.57 in 1.5 mi NE 9.2 mph 24.2 mph 0.01 in Snow Light Snow
12:19 PM 37.4 °F 29.3 °F 32.0 °F 81% 29.55 in 2.5 mi NE 12.7 mph - 0.01 in Snow Light Snow
12:51 PM 37.9 °F 29.6 °F 32.0 °F 79% 29.54 in 2.5 mi NE 13.8 mph 20.7 mph 0.01 in Rain Light Rain
1:06 PM 39.2 °F 30.8 °F 30.2 °F 70% 29.52 in 3.0 mi NE 15.0 mph 24.2 mph 0.00 in Rain Light Rain
1:51 PM 39.0 °F 29.0 °F 30.9 °F 73% 29.51 in 3.0 mi NE 20.7 mph 29.9 mph 0.00 in Rain Light Rain
2:51 PM 37.0 °F 29.3 °F 33.1 °F 86% 29.49 in 3.0 mi NE 11.5 mph 20.7 mph 0.01 in Rain , Snow Light Rain
3:42 PM 37.4 °F 33.8 °F 33.8 °F 87% 29.48 in 3.0 mi NE 4.6 mph - 0.02 in Rain Light Rain
3:51 PM 37.9 °F 32.1 °F 35.1 °F 89% 29.48 in 3.0 mi NE 8.1 mph - 0.02 in Rain Light Rain
4:51 PM 37.9 °F 31.5 °F 35.1 °F 89% 29.48 in 3.0 mi North 9.2 mph - 0.02 in Rain Light Rain
5:51 PM 37.9 °F 30.9 °F 35.1 °F 89% 29.49 in 5.0 mi North 10.4 mph - 0.02 in Rain Light Rain
6:51 PM 37.9 °F 32.7 °F 35.1 °F 89% 29.51 in 5.0 mi NW 6.9 mph - 0.01 in Rain Light Rain
7:51 PM 37.9 °F 31.5 °F 35.1 °F 89% 29.53 in 6.0 mi NW 9.2 mph - 0.02 in Rain Light Rain
8:13 PM 37.4 °F 30.3 °F 35.6 °F 93% 29.54 in 6.0 mi NNW 10.4 mph - 0.00 in Rain Light Rain
8:51 PM 37.9 °F 29.6 °F 34.0 °F 86% 29.56 in 8.0 mi North 13.8 mph - 0.00 in Rain Light Rain
9:51 PM 37.9 °F 30.9 °F 33.1 °F 83% 29.58 in 10.0 mi North 10.4 mph - 0.00 in   Overcast
10:05 PM 37.4 °F 30.8 °F 33.8 °F 87% 29.58 in 10.0 mi NNW 9.2 mph - N/A   Mostly Cloudy
10:51 PM 39.0 °F 36.8 °F 32.0 °F 76% 29.58 in 10.0 mi NNW 3.5 mph - N/A   Mostly Cloudy
11:51 PM 37.9 °F 30.0 °F 30.9 °F 76% 29.59 in 10.0 mi NNW 12.7 mph - N/A   Overcast